McAlester, OK

3:28 AM CST on November 19, 2017 (GMT -0600)
McAlester Regional

Weather History for KMLC - November, 2013

Change the Weather History Date:

Monday, November 25, 2013

  Actual Average Record
Temperature  
Mean Temperature 32 °F -  
Max Temperature 35 °F 59 °F 82 °F (1965)
Min Temperature 28 °F 40 °F 23 °F (1975)
Degree Days  
Heating Degree Days 34    
Moisture  
Dew Point 29 °F    
Average Humidity 86    
Maximum Humidity 93    
Minimum Humidity 78    
Precipitation  
Precipitation 0.00 in - - ()
Sea Level Pressure  
Sea Level Pressure 30.26 in    
Wind  
Wind Speed 3 mph (North)    
Max Wind Speed 10 mph    
Max Gust Speed -    
Visibility 10 miles    
Events      
Averages and records for this station are not official NWS values.
T = Trace of Precipitation, MM = Missing Value Source: NWS Daily Summary

Daily Weather History Graph

Daily Weather History Graph

Search for Another Location

Airport or City:

Trip Planner

Search our weather history database for the weather conditions in past years. The results will help you decide how hot, cold, wet, or windy it might be!

Date:

Astronomy

Nov. 25, 2013 Rise Set
Actual Time 7:07 AM CST 5:12 PM CST
Civil Twilight 6:39 AM CST 5:40 PM CST
Nautical Twilight 6:08 AM CST 6:11 PM CST
Astronomical Twilight 5:38 AM CST 6:41 PM CST
Moon No Moon Rise 12:33 PM CST (11/25)
Length of Visible Light 11h 00m
Length of Day
10h 05m
Waning Gibbous, 51% of the Moon is Illuminated
Nov 25
Waning Gibbous
Nov 25
Last Quarter
Dec 2
New
Dec 9
First Quarter
Dec 17
Full

Hourly Weather History & Observations

Time (CST) Temp. Windchill Dew Point Humidity Pressure Visibility Wind Dir Wind Speed Gust Speed Precip Events Conditions
12:53 AM 28.9 °F - 23.0 °F 78% 30.36 in 10.0 mi Calm Calm - N/A   Overcast
1:53 AM 28.9 °F - 24.1 °F 82% 30.34 in 10.0 mi Calm Calm - N/A   Overcast
2:53 AM 28.9 °F - 26.1 °F 89% 30.36 in 10.0 mi Calm Calm - 0.00 in   Overcast
3:53 AM 28.9 °F - 26.1 °F 89% 30.33 in 10.0 mi Calm Calm - N/A   Overcast
4:53 AM 30.0 °F - 28.0 °F 92% 30.33 in 10.0 mi Calm Calm - N/A   Overcast
5:53 AM 30.0 °F 26.5 °F 26.1 °F 85% 30.31 in 10.0 mi Variable 3.5 mph - N/A   Overcast
6:53 AM 30.0 °F 26.5 °F 26.1 °F 85% 30.31 in 10.0 mi Variable 3.5 mph - N/A   Overcast
7:12 AM 30.2 °F - 26.6 °F 86% 30.30 in 10.0 mi Calm Calm - N/A   Overcast
7:53 AM 30.0 °F 26.5 °F 27.0 °F 88% 30.32 in 10.0 mi South 3.5 mph - N/A   Overcast
8:17 AM 30.2 °F - 26.6 °F 86% 30.28 in 10.0 mi Calm Calm - N/A   Overcast
8:53 AM 30.0 °F 26.5 °F 28.0 °F 92% 30.30 in 9.0 mi SSE 3.5 mph - 0.00 in   Overcast
9:03 AM 30.2 °F 26.7 °F 28.4 °F 93% 30.28 in 10.0 mi Variable 3.5 mph - 0.00 in   Overcast
9:28 AM 30.2 °F 22.6 °F 28.4 °F 93% 30.29 in 10.0 mi South 8.1 mph - 0.00 in   Overcast
9:53 AM 32.0 °F - 28.9 °F 88% 30.30 in 10.0 mi Calm Calm - 0.00 in   Overcast
10:53 AM 32.0 °F 27.5 °F 28.0 °F 85% 30.29 in 10.0 mi Variable 4.6 mph - N/A   Overcast
11:53 AM 33.1 °F - 28.9 °F 85% 30.27 in 10.0 mi Calm Calm - N/A   Overcast
12:53 PM 33.1 °F - 28.9 °F 85% 30.25 in 10.0 mi Calm Calm - N/A   Overcast
1:53 PM 34.0 °F 31.0 °F 28.9 °F 82% 30.24 in 10.0 mi SSW 3.5 mph - N/A   Overcast
2:53 PM 34.0 °F 31.0 °F 30.0 °F 85% 30.23 in 10.0 mi NNW 3.5 mph - N/A   Overcast
3:45 PM 35.6 °F 29.2 °F 30.2 °F 81% 30.20 in 10.0 mi North 8.1 mph - N/A   Overcast
3:53 PM 34.0 °F 28.0 °F 30.0 °F 85% 30.22 in 10.0 mi North 6.9 mph - N/A   Overcast
4:01 PM 33.8 °F 29.6 °F 30.2 °F 87% 30.20 in 10.0 mi North 4.6 mph - N/A   Overcast
4:53 PM 34.0 °F 28.8 °F 30.0 °F 85% 30.22 in 10.0 mi North 5.8 mph - N/A   Overcast
5:53 PM 34.0 °F 28.0 °F 30.0 °F 85% 30.21 in 10.0 mi North 6.9 mph - N/A   Overcast
6:14 PM 33.8 °F 27.0 °F 30.2 °F 87% 30.20 in 10.0 mi NNW 8.1 mph - N/A   Overcast
6:43 PM 33.8 °F 27.0 °F 30.2 °F 87% 30.20 in 10.0 mi North 8.1 mph - N/A   Overcast
6:53 PM 34.0 °F 29.8 °F 30.0 °F 85% 30.22 in 10.0 mi NNW 4.6 mph - N/A   Overcast
7:53 PM 34.0 °F 26.0 °F 30.0 °F 85% 30.22 in 10.0 mi North 10.4 mph - N/A   Overcast
8:03 PM 33.8 °F 27.0 °F 30.2 °F 87% 30.21 in 10.0 mi North 8.1 mph - N/A   Overcast
8:26 PM 33.8 °F 27.0 °F 30.2 °F 87% 30.22 in 10.0 mi North 8.1 mph - N/A   Overcast
8:53 PM 34.0 °F 26.0 °F 30.0 °F 85% 30.23 in 10.0 mi North 10.4 mph - N/A   Overcast
9:06 PM 33.8 °F 25.8 °F 30.2 °F 87% 30.22 in 10.0 mi North 10.4 mph - N/A   Overcast
9:53 PM 34.0 °F 26.6 °F 30.0 °F 85% 30.22 in 10.0 mi North 9.2 mph - N/A   Overcast
10:34 PM 33.8 °F 27.7 °F 30.2 °F 87% 30.21 in 10.0 mi NNE 6.9 mph - N/A   Mostly Cloudy
10:53 PM 34.0 °F 28.8 °F 30.0 °F 85% 30.23 in 10.0 mi North 5.8 mph - N/A   Overcast
11:17 PM 33.8 °F 27.7 °F 30.2 °F 87% 30.21 in 10.0 mi North 6.9 mph - N/A   Overcast
11:38 PM 33.8 °F 27.7 °F 30.2 °F 87% 30.22 in 10.0 mi NNW 6.9 mph - N/A   Overcast
11:53 PM 34.0 °F 27.2 °F 30.0 °F 85% 30.22 in 10.0 mi North 8.1 mph - N/A   Overcast